Showing default

YAOGAN-43 02E, 60949

Orbit data source: Space-Track

YAOGAN-43 02E, 60949 is a payload satellite owned by PLA GAD (CN) in LEO that was launched on Tue, 03 Sep 2024 UTC via a CHANG ZHENG 4B launch vehicle from the Xichang Space Center, China (XSC). Payload-class satellites include a variety of spacecraft equipped with specific instruments for various scientific and technological missions. These include communications satellites like Starlink; space stations such as the ISS; scientific satellites like the Hubble; Earth observation satellites from companies like Planet Labs, Umbra, and HawkEye 360; GPS; miniature CubeSats for education and research; and military/defense satellites.

Loading next visibility...
Identifier
60949, 2024-156E
Orbit
LEO
Country
Flag of CNCN / PRC
Related business
Manufacturer
SAST
Mission
Operational Defense Communications
Bus & Motor
Unknown
Mass
~300 kg wet, ~300 kg dry
Launch date (UTC)
2024-09-03 (2 years ago)
Launch vehicle
CHANG ZHENG 4B
Launch site
Xichang Space Center, China (XSC)
Object type
Payload
Rocket body
Debris
Shape & HBR
Box + 2 Pan, 2.5 m
Radar Cross Section
11.063 m², Large (>1 m²)

Expand to show TLE details & history
Last TLE update: 6 hours ago

TLE from 6 hours ago
0 YAOGAN-43 02E
1 60949U 24156E   26256.74869468  .00010601  00000-0  44046-3 0  9998
2 60949  34.9984   1.1975 0005222  39.5643 320.5452 15.23028513112950
Epoch: 2026-09-13T17:58Z
TLE epoch observation values (Epoch: 2026-09-13T17:58:07.220Z)
Latitude
-0.00002°
Longitude
98.9285°
Altitude
492.848 km
Speed
7.622 km/s
True Right ascension
00h 04m 47s
True Declination
0° 00' 00"
Sunlit
Object was in full shadow at epoch
Visualization orbit readout
Latitude
Unknown
Longitude
Unknown
Altitude
Unknown
Speed
Unknown
Apparent Right ascension
Unknown
Apparent Declination
Unknown
Sunlit
N/A
Visualization observer readout
Local Sidereal Time
16:55:57
Azimuth
Unknown
Elevation
Unknown
Doppler factor
Unknown
Orbital elements
Apogee altitude
503.554 km
Perigee altitude
496.371 km
Semi-major axis
6,878.099 km
Eccentricity
0.00052
Inclination
34.9984°
RAAN
1.1975°
Arg. of periapsis
39.5643°
True anomaly
320.50715°
Mean anomaly
320.5452°
Eccentric anomaly
320.52618°
Mean motion
3.80488 °/min
Orbital period
94.62 mins
BSTAR
0.00044046
Loading maneuver chart data...
Computing Atmospheric mass density...
Loading historical data...
Loading historical data...
Loading historical data...
Loading historical data...
Loading historical data...
Loading historical data...
Loading historical data...

Documentation

Showing up to 5 results
|